Skip Page Navigation
NASA JPL Caltech
NASA Logo - Jet Propulsion Laboratory + View the NASA Portal
+ Center for Near-Earth Object Studies
JPL Home Earth Solar System Stars & Galaxies Technology
JPL Solar System Dynamics
BODIES ORBITS EPHEMERIDES TOOLS PHYSICAL DATA DISCOVERY FAQ SITE MAP
JPL Small-Body Database Browser
Search: [ help ]  
392362 (2010 GO103)
Classification: Main-belt Asteroid          SPK-ID: 2392362
Ephemeris | Orbit Diagram | Orbital Elements | Mission Design | Physical Parameters | Discovery Circumstances | Close-Approach Data ]

[ show orbit diagram ]
Orbital Elements at Epoch 2459000.5 (2020-May-31.0) TDB
Reference: JPL 14 (heliocentric ecliptic J2000)
 Element Value Uncertainty (1-sigma)   Units 
e .2085367148321947 7.764e-08  
a 2.759280295828255 3.7572e-08 au
q 2.183869047635024 2.3016e-07 au
i 8.129653826971358 7.0186e-06 deg
node 157.5773270109663 3.6807e-05 deg
peri 126.5129144741725 4.4389e-05 deg
M 33.3295471474277 1.9105e-05 deg
tp 2458845.504507492859
(2019-Dec-28.00450749)
8.7705e-05 TDB
period 1674.141477403099
4.58
3.4195e-05
9.362e-08
d
yr
n .2150355897987941 4.3921e-09 deg/d
Q 3.334691544021485 4.5408e-08 au
  Orbit Determination Parameters
   # obs. used (total)      163  
   data-arc span      5171 days (14.16 yr)  
   first obs. used      2005-03-11  
   last obs. used      2019-05-08  
   planetary ephem.      DE431  
   SB-pert. ephem.      SB431-N16  
   condition code      0  
   norm. resid. RMS      .52053  
   source      ORB  
   producer      Otto Matic  
   solution date      2020-Feb-26 04:43:46  

Additional Information
 Earth MOID = 1.17928 au 
 Jupiter MOID = 1.90276 au 
 T_jup = 3.296 
[ show covariance matrix ]

Ephemeris | Orbit Diagram | Orbital Elements | Mission Design | Physical Parameters | Discovery Circumstances | Close-Approach Data ]

Physical Parameter Table
Parameter Symbol Value Units Sigma Reference Notes
absolute magnitude H 17.0   n/a MPO472029  
diameter diameter 2.337 km 0.302 urn:nasa:pds:neowise_diameters_albedos::2.0[mainbelt] (http://adsabs.harvard.edu/abs/2012ApJ...759L...8M)  
geometric albedo albedo 0.043   0.018 urn:nasa:pds:neowise_diameters_albedos::2.0[mainbelt] (http://adsabs.harvard.edu/abs/2012ApJ...759L...8M)  

392362 (2010 GO103)          Discovered 2010-Apr-06 by Spacewatch at Kitt Peak
Reference: Last Updated: 2014-04-17

[ show close-approach data ]
Alternate Designations
 2010 GO103 = 2006 QD65 
Ephemeris | Orbit Diagram | Orbital Elements | Mission Design | Physical Parameters | Discovery Circumstances | Close-Approach Data ]
ABOUT SSD CREDITS/AWARDS PRIVACY/COPYRIGHT GLOSSARY LINKS
FirstGov 2020-Jul-10 23:36 UT
(server date/time)  
NASA Home Page
Site Manager:   Ryan S. Park
Webmaster  Alan B. Chamberlin